Simultaneous Nadir Overpasses (SNOs) Predictions

Prediction of SNOs between METOP-B and NOAA-19 Satellite Orbit:

Table of predicted SNOs for the next 14.0 days since TLE Epoch: 4/24/2020
Index Date (METOP-B) Time (METOP-B) Lat,Lon (METOP-B) SZA (METOP-B ) Date (NOAA-19) Time (NOAA-19) Lat,Lon (NOAA-19) SZA (NOAA-19 ) Distance(km) Time Diff (sec)
1 04/27/2020 13:39:52 -79.93, 176.60 113.44 04/27/2020 13:38:38 -79.94, 176.73 113.44 2.81 74
2 04/27/2020 14:30:32 79.95, -15.85 66.59 04/27/2020 14:29:42 79.92, -15.85 66.55 2.85 50
3 04/27/2020 15:21:13 -79.95, 151.43 113.43 04/27/2020 15:20:38 -79.92, 151.42 113.46 2.42 35
4 04/27/2020 16:11:54 79.94, -41.31 66.55 04/27/2020 16:11:43 79.93, -41.47 66.53 3.03 11
5 04/27/2020 17:02:35 -79.93, 125.97 113.47 04/27/2020 17:02:39 -79.93, 125.81 113.49 3.21 4
6 04/27/2020 17:53:16 79.93, -66.77 66.51 04/27/2020 17:53:43 79.92, -66.77 66.51 0.87 27
7 04/27/2020 18:43:57 -79.92, 100.52 113.52 04/27/2020 18:44:39 -79.92, 100.50 113.51 0.45 42
8 04/27/2020 19:34:38 79.91, -92.23 66.47 04/27/2020 19:35:44 79.93, -92.38 66.49 3.21 66
9 05/08/2020 14:02:30 80.09, -7.48 63.64 05/08/2020 14:01:23 80.10, -10.72 63.41 62.06 67
10 05/08/2020 14:53:16 -79.95, 158.42 116.61 05/08/2020 14:52:12 -79.97, 158.41 116.61 2.42 64
11 05/08/2020 15:43:56 79.96, -34.14 63.40 05/08/2020 15:43:17 79.95, -34.14 63.39 0.67 39
12 05/08/2020 16:34:37 -79.96, 133.26 116.60 05/08/2020 16:34:12 -79.95, 133.11 116.63 3.14 25
13 05/08/2020 17:25:18 79.94, -59.60 63.36 05/08/2020 17:25:18 79.96, -59.75 63.37 3.30 0
14 05/08/2020 18:15:59 -79.95, 107.80 116.64 05/08/2020 18:16:12 -79.94, 107.80 116.65 1.52 13
15 05/08/2020 19:06:40 79.93, -85.07 63.33 05/08/2020 19:07:18 79.94, -85.05 63.35 1.44 38
16 05/08/2020 19:57:21 -79.94, 82.34 116.68 05/08/2020 19:58:13 -79.95, 82.19 116.66 3.01 52




NCC Satellite Simultaneous Nadir Overpasses (SNOs) Prediction Service
